Flag for India Weather past 2 weeks in Jaipur, Rajasthan, India

Now
79 °F

Light rain. Partly cloudy.


Feels Like: 82 °F
Forecast: 77 / 85 °F
Wind: 8 mph from Northeast

Location: Jaipur / Sanganer

Current Time: Sep 2, 2014 at 9:00:05 PM

Latest Report: Sep 2, 2014 at 8:00 PM


Visibility: 2 mi

Pressure: 29.59 "Hg

Humidity: 89%

Dew point: 75 °F

Location of JaipurLocation

Historic Weather in Jaipur — Graph

°F

Jaipur temperature yesterday

Maximum temperature yesterday: 86 °F (at 1:00 PM)
Minimum temperature yesterday: 79 °F (at 1:00 AM)
Average temperature yesterday: 82 °F

Past Weeks' High & Low Weather Summary

 TemperatureHumidityPressure
High100 °F (Aug 25, 3:00 PM)94% (Aug 30, 11:00 AM)30.01 "Hg (Aug 30, 11:00 AM)
Low75 °F (Aug 30, 1:00 PM)27% (Aug 25, 4:00 PM)29.53 "Hg (Aug 31, 3:00 PM)
Average87 °F61%29.70 "Hg
* Reported Aug 18 7:00 PM — Sep 2 7:00 PM, Jaipur, Weather by CustomWeather, © 2014

Note: Actual official high and low records may vary slightly from our data, if they occured in-between our weather recording intervals... More about our weather records

Advertising

Jaipur weather history for previous 24 hours

 ConditionsComfort  
Time TempWeatherWind HumidityBarometerVisibility
7:00 PM
Sep 2
79 °FThunderstorms. Broken clouds.10 mph94%29.59 "Hg1 mi
6:00 PM81 °FScattered clouds.7 mph89%29.53 "Hg2 mi
5:00 PM81 °FBroken clouds.7 mph89%29.53 "Hg2 mi
4:00 PM84 °FBroken clouds.12 mph79%29.56 "Hg2 mi
3:00 PM82 °FBroken clouds.9 mph84%29.56 "Hg2 mi
2:30 PM81 °FLight rain. Broken clouds.12 mph89%29.59 "Hg1 mi
2:00 PM79 °FLight rain. Broken clouds.10 mph89%29.59 "Hg1 mi
1:00 PM79 °FLight rain. Broken clouds.12 mph94%29.62 "Hg1 mi
11:00 AM81 °FBroken clouds.8 mph89%29.65 "Hg2 mi
9:00 AM81 °FFog.13 mph84%29.62 "Hg2 mi
7:00 AM79 °FFog.7 mph89%29.62 "Hg2 mi
6:00 AM77 °FFog.8 mph94%29.59 "Hg2 mi
4:00 AM79 °FFog.8 mph89%29.59 "Hg2 mi
3:00 AM79 °FFog.9 mph89%29.59 "Hg2 mi
11:00 PM
Sep 1
81 °FPassing clouds.10 mph79%29.62 "Hg2 mi
10:00 PM81 °FPassing clouds.10 mph79%29.62 "Hg2 mi
9:00 PM82 °FPassing clouds.12 mph74%29.62 "Hg2 mi
Weather by CustomWeather, © 2014

See weather overviewHow to use our weather pages